Location: Agendoh
(31.0664°N, 8.9343°W)
Time: 08:33:13
(UTC+00:00)

Meteor 1-10 Rocket - Pass Details

Date: 06 December 2021
Orbit: 835 x 910 km, 81.3° (Epoch: 24 January)

Event Time Altitude Azimuth Distance (km) Brightness Sun altitude
Rises 06:15:25 0° 350° (N) 3,389 7.1 -13.7°
Reaches altitude 10° 06:17:50 10° 349° (N) 2,450 6.3 -13.2°
Maximum altitude 06:23:22 76° 264° (W) 863 4.1 -12.1°
Drops below altitude 10° 06:28:53 10° 179° (S) 2,451 6.9 -11.0°
Sets 06:31:18 0° 178° (S) 3,390 7.6 -10.5°
